TimeEST,TemperatureF,Dew PointF,Humidity,Sea Level PressureIn,VisibilityMPH,Wind Direction,Wind SpeedMPH,Gust SpeedMPH,PrecipitationIn,Events,Conditions,WindDirDegrees,DateUTC
12:54 AM,42.8,33.8,70,30.18,10.0,Calm,Calm,-,N/A,,Clear,0,2012-12-20 05:54:00
1:54 AM,39.0,34.0,82,30.18,8.0,Calm,Calm,-,N/A,,Clear,0,2012-12-20 06:54:00
2:54 AM,39.0,34.0,82,30.18,8.0,Calm,Calm,-,N/A,,Clear,0,2012-12-20 07:54:00
3:54 AM,37.0,33.1,86,30.20,9.0,Calm,Calm,-,N/A,,Clear,0,2012-12-20 08:54:00
4:54 AM,36.0,32.0,86,30.19,6.0,Calm,Calm,-,N/A,,Clear,0,2012-12-20 09:54:00
5:54 AM,37.0,30.9,79,30.20,9.0,Calm,Calm,-,N/A,,Clear,0,2012-12-20 10:54:00
6:54 AM,37.0,30.9,79,30.21,9.0,Calm,Calm,-,N/A,,Clear,0,2012-12-20 11:54:00
7:54 AM,37.0,30.0,76,30.20,9.0,Calm,Calm,-,N/A,,Clear,0,2012-12-20 12:54:00
8:54 AM,46.0,36.0,68,30.18,10.0,East,5.8,-,N/A,,Clear,90,2012-12-20 13:54:00
9:54 AM,50.0,37.0,61,30.17,10.0,East,6.9,-,N/A,,Clear,100,2012-12-20 14:54:00
10:54 AM,53.1,36.0,52,30.13,10.0,ESE,12.7,-,N/A,,Clear,110,2012-12-20 15:54:00
11:54 AM,53.1,36.0,52,30.12,10.0,SE,6.9,-,N/A,,Clear,130,2012-12-20 16:54:00
12:54 PM,53.1,37.0,55,30.09,10.0,SE,4.6,-,N/A,,Clear,130,2012-12-20 17:54:00
1:54 PM,55.0,37.9,53,30.06,10.0,ESE,6.9,-,N/A,,Clear,120,2012-12-20 18:54:00
2:54 PM,53.1,41.0,64,30.02,10.0,East,10.4,-,N/A,,Clear,80,2012-12-20 19:54:00
3:54 PM,51.8,41.0,67,29.98,10.0,East,10.4,-,N/A,,Clear,100,2012-12-20 20:54:00
4:54 PM,52.0,42.1,69,29.95,10.0,ESE,11.5,-,N/A,,Mostly Cloudy,110,2012-12-20 21:54:00
5:54 PM,53.1,43.0,69,29.91,10.0,ESE,12.7,-,N/A,,Mostly Cloudy,110,2012-12-20 22:54:00
6:54 PM,54.0,44.1,69,29.88,10.0,ESE,12.7,23.0,N/A,,Overcast,120,2012-12-20 23:54:00
7:54 PM,54.0,46.0,75,29.82,10.0,SE,12.7,-,0.00,,Overcast,130,2012-12-21 00:54:00
8:54 PM,55.9,48.0,75,29.76,10.0,SE,13.8,-,0.01,Rain,Light Rain,130,2012-12-21 01:54:00
9:54 PM,59.0,51.1,75,29.68,9.0,SE,17.3,25.3,0.00,Rain,Light Rain,140,2012-12-21 02:54:00
10:54 PM,60.1,53.1,78,29.60,5.0,SSE,16.1,28.8,0.05,Rain,Light Rain,150,2012-12-21 03:54:00
11:54 PM,62.1,55.0,78,29.50,5.0,SSE,21.9,33.4,0.12,Rain,Light Rain,160,2012-12-21 04:54:00